Overview Statistics Trail Chart Weather Telemetry Raw packets
 

This is the latest recevied weather packets stored in our database for station/object N3EG. If no packets are shown the sender has not sent any weather packets the latest 10 day(s).

<< 18 19 20 21 22 23 24 >>
Time Temp. Humidity Pressure Rain* Wind** Luminosity Snow
1788549603 17.22° C 78% 1013.7 hPa 0 mm - - -
1788549302 17.22° C 79% 1013.7 hPa 0 mm - - -
1788549003 17.22° C 81% 1013.7 hPa 0 mm - - -
1788548703 16.67° C 83% 1013.8 hPa 0 mm - - -
1788548402 16.67° C 82% 1013.7 hPa 0 mm - - -
1788548103 16.67° C 82% 1013.9 hPa 0 mm - - -
1788547803 16.67° C 83% 1013.9 hPa 0 mm - - -
1788547502 16.11° C 84% 1013.9 hPa 0 mm - - -
1788547203 16.11° C 83% 1014 hPa 0 mm - - -
1788546903 15.56° C 84% 1014 hPa 0 mm - - -
1788546602 15.56° C 85% 1013.9 hPa 0 mm - - -
1788546303 15.56° C 86% 1014 hPa 0 mm - - -
1788546002 15.56° C 88% 1014 hPa 0 mm - - -
1788545703 15° C 89% 1013.9 hPa 0 mm - - -
1788545403 15° C 91% 1013.9 hPa 0 mm - - -
1788545102 14.44° C 92% 1014 hPa 0 mm - - -
1788544803 14.44° C 93% 1014 hPa 0 mm - - -
1788544503 14.44° C 92% 1014 hPa 0 mm - - -
1788544202 13.89° C 93% 1013.9 hPa 0 mm - - -
1788543903 13.89° C 94% 1014 hPa 0 mm - - -
1788543603 13.89° C 94% 1014 hPa 0 mm - - -
1788543302 13.33° C 94% 1013.9 hPa 0 mm - - -
1788543003 13.33° C 95% 1013.9 hPa 0 mm - - -
1788542702 13.33° C 95% 1013.8 hPa 0 mm - - -
1788542402 12.78° C 95% 1013.8 hPa 0 mm - - -

* Rain latest hour (hover to see other rain measurements)
** Current wind speed in m/s (hover to see current wind gust speed)